Location: ???????
(56.2167°N, 38.0500°E)
Time: 06:30:36
(UTC+00:00)

USA 229 DEB - Pass Details

Date: 19 May 2025
Orbit: 872 x 1339 km, 63.4° (Epoch: 14 June)

Event Time Altitude Azimuth Distance (km) Brightness Sun altitude
Exits shadow 23:20:44 - 251° (WSW) 3,464 6.0 -9.9°
Reaches altitude 10° 23:22:48 10° 255° (WSW) 2,720 5.4 -9.8°
Maximum altitude 23:29:08 62° 336° (NNW) 1,177 4.1 -9.4°
Drops below altitude 10° 23:36:19 10° 57° (ENE) 3,057 7.3 -8.9°
Sets 23:39:15 0° 61° (ENE) 4,090 7.9 -8.7°
